Terug naar catalogus

STARLINK-5722

ActiefCommunicatieVLEO
NORAD 55610·PAYLOAD·🇺🇸 United States

Gelanceerd Feb 12, 2023 vanaf Cape Canaveral Space Force Station

Loading…

Volgende Passages (komende 24 uur)

TLE

VersSource: CelesTrak SupGP

Epoch: Sep 14, 2026, 21:24 UTC

1 55610C 23020AT  26257.89215278 -.00006822  00000+0 -24705-3 0  2575
2 55610  43.0043   5.9789 0002153 281.3257  27.2540 15.27586332    13

Volg STARLINK-5722 in realtime met AllMySat

Download on the App Store